User: anonymous   Login
Location: eljas
(40.1958°N, 6.8661°W)
Time: 10:19:48
(UTC+01:00)
Language:

Okean O Rocket - Orbit

View from above orbital plane
View from above orbital plane
View from above satellite
View from above satellite

Ground track
Ground track

The orbit data is extracted from the following two-line orbital elements,

1 25861U 99039B   14354.52189201  .00000989  00000-0  14416-3 0  8216
2 25861 097.9774 311.2220 0017043 131.9671 004.5008 14.77931116831381
Epoch (UTC): 20 December 2014 12:31:31
Eccentricity: 0.0017043
inclination: 97.9774°
perigee height: 624 km
apogee height: 648 km
right ascension of ascending node: 311.2220°
argument of perigee: 131.9671°
revolutions per day: 14.77931116
mean anomaly at epoch: 4.5008°
orbit number at epoch: 83138

The dashed part of the orbit path shows where the satellite is in the earth's shadow,  

DLR